Location: Grand Lay
(47.3253°N, 0.9468°E)
Time: 22:55:01
(UTC+00:00)

Cosmos 2184 Rocket - Visible Passes

Search period start: 18 April 2026 00:00
Search period end: 28 April 2026 00:00
Orbit: 958 x 1001 km, 82.9° (Epoch: 18 April)

Date Brightness Start Highest point End Pass type
(mag) Time Alt. Az. Time Alt. Az. Time Alt. Az.
18 Apr 6.3 20:07:36 10° SW 20:12:54 27° WNW 20:18:13 10° N visible
19 Apr 7.7 03:32:21 10° NE 03:32:54 10° NE 03:33:25 10° ENE visible
19 Apr 7.0 20:36:18 10° W 20:40:06 16° WNW 20:43:55 10° NNW visible
20 Apr 7.1 03:56:11 10° NNE 04:00:17 18° ENE 04:04:22 10° ESE visible
21 Apr 6.3 04:22:03 10° N 04:27:28 30° ENE 04:32:48 10° SE visible
21 Apr 6.3 19:41:55 10° SW 19:47:20 29° WNW 19:52:47 10° N visible
22 Apr 7.0 20:10:26 10° WSW 20:14:31 17° WNW 20:18:35 10° NNW visible
23 Apr 7.0 03:30:52 10° NNE 03:34:41 17° ENE 03:38:28 10° E visible
24 Apr 6.4 03:56:37 10° N 04:01:52 28° ENE 04:07:04 10° SE visible
25 Apr 7.1 19:44:36 10° WSW 19:48:55 19° WNW 19:53:15 10° NNW visible
26 Apr 7.0 03:05:35 10° NNE 03:09:04 15° ENE 03:12:32 10° E visible
26 Apr 7.7 20:14:53 10° WNW 20:16:18 11° NW 20:17:42 10° NW visible
27 Apr 6.4 03:31:12 10° NNE 03:36:18 26° ENE 03:41:19 10° ESE visible
